Find Kitsat-OSCAR-23

NORAD ID: 22077 Int'l Des: 1992-052 Owner: KAIST Country: KR operational
LEOCIRCULAR

Live Position

Loading 3D Globe...

About Kitsat-OSCAR-23

Description loading...

Upcoming Passes

Passes for default location (London). Set your location on the main map for personalized predictions.

Altitude History

Loading altitude history...

Two-Line Element Set

1 22077U 92052B 26106.61693939 -.00000067 00000-0 -20635-4 0 9992
2 22077 66.0863 50.0958 0014155 297.9051 234.2699 12.86610890581768
Epoch: Apr 16, 2026 • Age: 18 hours

Current Status

Altitude 1333.4 km
Velocity 7.19 km/s
Sub-Earth Point 52.01°N, 149.34°W
Launch Date Aug 10, 1992
Age 33.6 years
Type other

Technical Details

Classification Payload
Mass 48.00 kg
Dry Mass 48.00 kg
Total Mass 48.00 kg
Length 0.60 m
Diameter 0.40 m
Span 6.50 m
Shape Box + Ant
Manufacturer SSTL
Bus Type UoSAT
Phase Status In Orbit
Owner/State KAIST/KR

Most Searched